Location: Ferintosh
(52.7647°N, 112.9692°W)
Time: 19:45:51
(UTC+00:00)

Explorer 7 - Pass Details

Date: 26 May 2024
Orbit: 466 x 622 km, 50.3° (Epoch: 16 June)

Event Time Altitude Azimuth Distance (km) Brightness Sun altitude
Rises 05:50:57 0° 234° (SW) 2,516 10.1 -13.0°
Reaches altitude 10° 05:53:10 10° 225° (SW) 1,656 9.0 -13.1°
Maximum altitude 05:56:37 36° 158° (SSE) 793 7.1 -13.3°
Drops below altitude 10° 06:00:14 10° 90° (E) 1,730 9.1 -13.5°
Sets 06:02:35 0° 82° (E) 2,648 10.2 -13.7°
